Hourly Weather Lukowe

Today, 17 May, Monday

Time Temperature Precipitation Wind Pressure Humidity
00:00 +8°C° 0 mm 2 mps 722 mmHg 97%
01:00 +9°C° 0 mm 1 mps 722 mmHg 98%
02:00 +9°C° 0 mm 1 mps 722 mmHg 98%
03:00 +9°C° 0 mm 1 mps 722 mmHg 97%
04:00 +9°C° 0 mm 1 mps 722 mmHg 97%
05:00 +10°C° 0 mm 2 mps 722 mmHg 91%
06:00 +12°C° 0 mm 2 mps 721 mmHg 85%
07:00 +14°C° 0 mm 2 mps 721 mmHg 79%
08:00 +15°C° 0 mm 2 mps 721 mmHg 72%
09:00 +16°C° 0 mm 3 mps 721 mmHg 65%
10:00 +18°C° 0 mm 3 mps 721 mmHg 58%
11:00 +19°C° 0 mm 3 mps 721 mmHg 54%
12:00 +20°C° 0 mm 3 mps 721 mmHg 50%
13:00 +20°C° 0 mm 2 mps 720 mmHg 46%
14:00 +20°C° 0 mm 2 mps 720 mmHg 50%
15:00 +19°C° 0 mm 2 mps 720 mmHg 53%
16:00 +19°C° 0 mm 2 mps 719 mmHg 57%
17:00 +17°C° 0.1 mm 2 mps 719 mmHg 67%
18:00 +15°C° 0.1 mm 1 mps 719 mmHg 76%
19:00 +13°C° 0.1 mm 1 mps 719 mmHg 85%
20:00 +12°C° 0 mm 1 mps 719 mmHg 89%
21:00 +12°C° 0 mm 1 mps 719 mmHg 92%
22:00 +10°C° 0 mm 2 mps 720 mmHg 96%
23:00 +10°C° 0.2 mm 2 mps 720 mmHg 96%

Tomorrow, 18 May, Tuesday

Time Temperature Precipitation Wind Pressure Humidity
00:00 +10°C° 0.2 mm 2 mps 720 mmHg 97%
01:00 +10°C° 0.2 mm 2 mps 720 mmHg 98%
02:00 +10°C° 0.4 mm 2 mps 719 mmHg 98%
03:00 +10°C° 0.4 mm 2 mps 719 mmHg 98%
04:00 +9°C° 0.4 mm 3 mps 719 mmHg 98%
05:00 +9°C° 1.1 mm 3 mps 720 mmHg 98%
06:00 +9°C° 1.1 mm 3 mps 720 mmHg 98%
07:00 +9°C° 1.1 mm 3 mps 720 mmHg 97%
08:00 +9°C° 1 mm 3 mps 721 mmHg 97%
09:00 +9°C° 1 mm 3 mps 721 mmHg 97%
10:00 +8°C° 1 mm 4 mps 722 mmHg 97%
11:00 +8°C° 1 mm 4 mps 722 mmHg 97%
12:00 +8°C° 1 mm 4 mps 722 mmHg 97%
13:00 +8°C° 1 mm 5 mps 723 mmHg 97%
14:00 +8°C° 1.1 mm 4 mps 723 mmHg 97%
15:00 +8°C° 1.1 mm 4 mps 723 mmHg 96%
16:00 +10°C° 1.1 mm 3 mps 723 mmHg 96%
17:00 +10°C° 0.3 mm 3 mps 724 mmHg 95%
18:00 +10°C° 0.3 mm 3 mps 724 mmHg 95%
19:00 +10°C° 0.3 mm 2 mps 724 mmHg 95%
20:00 +9°C° 0 mm 2 mps 724 mmHg 95%
21:00 +9°C° 0 mm 2 mps 724 mmHg 95%
22:00 +9°C° 0 mm 1 mps 724 mmHg 95%
23:00 +8°C° 0 mm 2 mps 725 mmHg 95%

Day after tomorrow, 19 May, Wednesday

Time Temperature Precipitation Wind Pressure Humidity
00:00 +8°C° 0 mm 2 mps 725 mmHg 95%
01:00 +8°C° 0 mm 2 mps 725 mmHg 95%
02:00 +8°C° 0 mm 2 mps 725 mmHg 95%
03:00 +7°C° 0 mm 2 mps 725 mmHg 95%
04:00 +8°C° 0 mm 1 mps 725 mmHg 95%
05:00 +8°C° 0 mm 2 mps 725 mmHg 92%
06:00 +9°C° 0 mm 3 mps 726 mmHg 90%
07:00 +10°C° 0 mm 3 mps 726 mmHg 87%
08:00 +12°C° 0.1 mm 3 mps 726 mmHg 79%
09:00 +13°C° 0.1 mm 3 mps 726 mmHg 72%
10:00 +14°C° 0.1 mm 4 mps 726 mmHg 64%
11:00 +14°C° 0.1 mm 4 mps 726 mmHg 63%
12:00 +14°C° 0.1 mm 4 mps 726 mmHg 62%
13:00 +15°C° 0.1 mm 4 mps 726 mmHg 61%
14:00 +14°C° 0.1 mm 3 mps 725 mmHg 63%
15:00 +14°C° 0.1 mm 3 mps 725 mmHg 64%
16:00 +14°C° 0.1 mm 3 mps 725 mmHg 65%
17:00 +13°C° 0.1 mm 2 mps 725 mmHg 74%
18:00 +12°C° 0.1 mm 2 mps 725 mmHg 83%
19:00 +10°C° 0.1 mm 2 mps 725 mmHg 91%
20:00 +9°C° 0 mm 2 mps 725 mmHg 93%
21:00 +8°C° 0 mm 2 mps 725 mmHg 94%
22:00 +8°C° 0 mm 2 mps 725 mmHg 95%
23:00 +8°C° 0.5 mm 2 mps 725 mmHg 96%

20 May, Thursday

Time Temperature Precipitation Wind Pressure Humidity
00:00 +8°C° 0.5 mm 2 mps 725 mmHg 97%
01:00 +8°C° 0.5 mm 2 mps 724 mmHg 98%
02:00 +8°C° 1.2 mm 2 mps 724 mmHg 98%
03:00 +8°C° 1.2 mm 2 mps 724 mmHg 98%
04:00 +8°C° 1.2 mm 3 mps 724 mmHg 98%
05:00 +8°C° 0.9 mm 3 mps 725 mmHg 98%
06:00 +8°C° 0.9 mm 3 mps 725 mmHg 98%
07:00 +8°C° 0.9 mm 3 mps 725 mmHg 98%
08:00 +9°C° 0.4 mm 3 mps 725 mmHg 97%
09:00 +9°C° 0.4 mm 3 mps 725 mmHg 95%
10:00 +8°C° 0.4 mm 4 mps 726 mmHg 93%
11:00 +10°C° 0.4 mm 4 mps 726 mmHg 92%
12:00 +10°C° 0.4 mm 4 mps 726 mmHg 90%
13:00 +10°C° 0.4 mm 5 mps 726 mmHg 89%
14:00 +10°C° 0.4 mm 5 mps 726 mmHg 87%
15:00 +11°C° 0.4 mm 4 mps 726 mmHg 86%
16:00 +11°C° 0.4 mm 4 mps 726 mmHg 84%
17:00 +10°C° 0.1 mm 4 mps 727 mmHg 85%
18:00 +10°C° 0.1 mm 3 mps 727 mmHg 86%
19:00 +9°C° 0.1 mm 3 mps 727 mmHg 87%
20:00 +8°C° 0 mm 2 mps 727 mmHg 89%
21:00 +7°C° 0 mm 2 mps 728 mmHg 91%
22:00 +7°C° 0 mm 1 mps 728 mmHg 93%
23:00 +7°C° 0 mm 1 mps 729 mmHg 94%

21 May, Friday

Time Temperature Precipitation Wind Pressure Humidity
00:00 +7°C° 0 mm 1 mps 729 mmHg 96%
01:00 +7°C° 0 mm 1 mps 729 mmHg 97%
02:00 +6°C° 0.1 mm 2 mps 730 mmHg 97%
03:00 +7°C° 0.1 mm 2 mps 730 mmHg 97%
04:00 +7°C° 0.1 mm 2 mps 730 mmHg 97%
05:00 +7°C° 0 mm 3 mps 730 mmHg 92%
06:00 +8°C° 0 mm 3 mps 731 mmHg 88%
07:00 +8°C° 0 mm 3 mps 731 mmHg 83%
08:00 +9°C° 0.1 mm 3 mps 731 mmHg 73%
09:00 +11°C° 0.1 mm 4 mps 731 mmHg 64%
10:00 +12°C° 0.1 mm 4 mps 731 mmHg 54%
11:00 +12°C° 0 mm 4 mps 731 mmHg 51%
12:00 +13°C° 0 mm 3 mps 731 mmHg 49%
13:00 +13°C° 0 mm 3 mps 731 mmHg 46%
14:00 +13°C° 0 mm 3 mps 730 mmHg 48%
15:00 +14°C° 0 mm 3 mps 730 mmHg 49%
16:00 +14°C° 0 mm 4 mps 730 mmHg 51%
17:00 +12°C° 0 mm 3 mps 730 mmHg 60%
18:00 +10°C° 0 mm 2 mps 730 mmHg 70%
19:00 +8°C° 0 mm 0 mps 730 mmHg 79%
20:00 +8°C° 0 mm 1 mps 730 mmHg 81%
21:00 +7°C° 0 mm 1 mps 730 mmHg 83%
22:00 +7°C° 0 mm 1 mps 730 mmHg 85%
23:00 +7°C° 0 mm 1 mps 730 mmHg 83%

22 May, Saturday

Time Temperature Precipitation Wind Pressure Humidity
00:00 +6°C° 0 mm 2 mps 730 mmHg 82%
01:00 +6°C° 0 mm 2 mps 729 mmHg 80%
02:00 +6°C° 0 mm 2 mps 729 mmHg 81%
03:00 +5°C° 0 mm 2 mps 729 mmHg 81%
04:00 +5°C° 0 mm 2 mps 729 mmHg 82%
05:00 +7°C° 0 mm 3 mps 729 mmHg 76%
06:00 +10°C° 0 mm 3 mps 729 mmHg 71%
07:00 +12°C° 0 mm 4 mps 729 mmHg 65%
08:00 +13°C° 0 mm 4 mps 729 mmHg 60%
09:00 +14°C° 0 mm 5 mps 729 mmHg 56%
10:00 +16°C° 0 mm 5 mps 729 mmHg 51%
11:00 +16°C° 0 mm 5 mps 728 mmHg 51%
12:00 +17°C° 0 mm 5 mps 728 mmHg 51%
13:00 +17°C° 0 mm 5 mps 728 mmHg 50%
14:00 +17°C° 0 mm 5 mps 728 mmHg 54%
15:00 +18°C° 0 mm 4 mps 728 mmHg 57%
16:00 +17°C° 0 mm 4 mps 728 mmHg 60%
17:00 +15°C° 0 mm 4 mps 727 mmHg 65%
18:00 +14°C° 0 mm 3 mps 727 mmHg 70%
19:00 +13°C° 0 mm 3 mps 727 mmHg 75%
20:00 +12°C° 0 mm 3 mps 727 mmHg 78%
21:00 +11°C° 0 mm 3 mps 727 mmHg 80%
22:00 +12°C° 0 mm 2 mps 727 mmHg 82%
23:00 +12°C° 0 mm 2 mps 727 mmHg 82%
Show more

We Need Your Consent

Meteoprog and our Service Providers may store and access personal data such as cookies, device identifiers or other similar technologies on your device and process such data to personalise content and ads, as well as provide social media features and to analyse the traffic.

  • Store and/or access information on your device

    Cookies, device identifiers or other information can be stored or accessed on your device for the purposes indicated above.

  • Personalised ads and content, ad and content measurement, audience insights, and products development

    Ads and content can be personalised based on a profile. More data can be added to better personalise ads and content. Ad and content performance can be measured. Insights about the audience who saw the ads and content can be derived. Such data can be used to develop or improve user’s experience, systems and software.

By clicking ‘I Agree’ you will allow the use of indicated cookies, device identifiers, web beacons or other similar technologies. Your settings can be changed in the browser on your device.

For certain purposes, legitimate interests may be relied on, rather than consent. You can read more about this in our Privacy and Cookie Policy.